[[{"header":{"parameterUnit":"m.s-1","parameterCategory":2,"la1":30.2992,"la2":30.254,"lo1":-89.0895,"lo2":-89.0443,"dy":0.0025,"dx":0.0025,"nx":19,"ny":19,"refTime":"2026-04-02T21:00:00:Z","depth":"0","parameterNumber":2,"parameterNumberName":"U-component_of_CURRENTS"},"data":[0,0,0,-0.153,-0.1533,-0.1652,-0.1652,-0.1676,-0.1675,0,0,0,0,0,0,0,0,0,0,0,-0.1468,-0.1469,-0.153,-0.1533,-0.1652,-0.1652,-0.1676,-0.1675,0,0,0,0,0,0,0,0,0,0,0,-0.1468,-0.1469,-0.1469,-0.1534,-0.1651,-0.1652,-0.1676,-0.1616,0,0,0,0,0,0,0,0,0,0,-0.1515,-0.1477,-0.1469,-0.1469,-0.1535,-0.1651,-0.1652,-0.1614,-0.1619,-0.1588,0,-0.1604,0,-0.1651,-0.1675,-0.1675,0,0,0,-0.1523,-0.1473,-0.1513,-0.147,-0.1536,-0.1651,-0.1595,-0.1618,-0.1624,-0.1595,-0.1605,-0.1607,-0.1651,-0.1675,-0.1675,-0.1609,-0.1608,0,0,-0.1517,-0.1481,-0.151,-0.1517,-0.156,-0.1592,-0.1599,-0.1623,-0.1617,-0.1605,-0.1609,-0.1652,-0.1675,-0.1675,-0.161,-0.1609,0,0,0,-0.1505,-0.1476,-0.1518,-0.1514,-0.1552,-0.1595,-0.1604,-0.1616,-0.1633,-0.161,-0.1652,-0.1675,-0.1675,-0.161,-0.1609,-0.1609,0,0,0,-0.15,-0.1471,-0.1515,-0.1494,-0.1552,-0.1604,-0.1596,-0.163,-0.1636,-0.1652,-0.1675,-0.1675,-0.1611,-0.161,-0.1611,-0.1627,0,0,0,-0.1464,-0.1467,-0.1481,-0.1491,-0.1552,-0.1606,-0.1624,-0.1633,-0.1661,-0.1675,-0.1675,-0.1612,-0.161,-0.1612,-0.1629,-0.1696,0,0,0,-0.1423,-0.1449,-0.1479,-0.1519,-0.155,-0.161,-0.1624,-0.1664,-0.1676,-0.1675,-0.1611,-0.1609,-0.1613,-0.1629,-0.1696,-0.179,-0.1799,0,0,-0.1438,-0.1449,-0.1476,-0.1508,-0.1561,-0.1594,-0.1612,-0.1636,-0.1633,-0.1594,-0.1594,-0.161,-0.1629,-0.1696,-0.1697,-0.171,0,0,0,-0.147,-0.1477,-0.1501,-0.1539,-0.1589,-0.1602,-0.1631,-0.162,-0.1598,-0.1637,-0.1577,-0.1589,-0.1632,-0.1686,-0.1695,-0.1688,-0.1602,-0.1602,-0.1602,-0.1422,-0.1467,-0.1493,-0.1537,-0.1563,-0.1598,-0.1602,-0.1578,-0.1577,-0.155,-0.1563,-0.1579,-0.1631,-0.1641,-0.163,-0.1525,-0.1525,-0.1525,-0.1525,-0.1418,-0.1429,-0.1465,-0.1503,-0.1524,-0.153,-0.1542,-0.1545,-0.1552,-0.1519,-0.1563,-0.165,-0.1652,-0.1636,-0.1525,-0.1525,-0.1525,-0.1525,-0.1525,-0.1368,-0.1378,-0.1405,-0.144,-0.1457,-0.149,-0.1542,-0.1547,-0.1557,-0.1585,-0.1696,-0.1698,-0.1714,-0.1626,-0.1627,-0.1627,-0.1627,-0.1628,-0.1628,-0.1302,-0.1331,-0.1339,-0.138,-0.1403,-0.1458,-0.1548,-0.1617,-0.1706,-0.1715,-0.1716,-0.1709,-0.1612,-0.1642,-0.1633,-0.1632,-0.1631,-0.1631,-0.1631,-0.1245,-0.1255,-0.1268,-0.1291,-0.1376,-0.1442,-0.1571,-0.177,-0.1853,-0.1918,-0.1866,-0.18,-0.1829,-0.1821,-0.1856,-0.1904,-0.1904,-0.1904,-0.1904,-0.1186,-0.1202,-0.121,-0.1255,-0.1343,-0.1438,-0.1617,-0.1802,-0.1947,-0.1975,-0.197,-0.1939,-0.1929,-0.196,-0.1949,-0.1985,-0.2064,-0.2064,-0.2064,-0.1136,-0.1153,-0.1143,-0.1213,-0.1326,-0.1442,-0.1569,-0.1776,-0.1994,-0.2064,-0.194,-0.1933,-0.1876,-0.186,-0.1896,-0.1882,-0.1935,0,0]},{"header":{"parameterUnit":"m.s-1","parameterCategory":2,"la1":30.2992,"la2":30.254,"lo1":-89.0895,"lo2":-89.0443,"dy":0.0025,"dx":0.0025,"nx":19,"ny":19,"refTime":"2026-04-02T21:00:00:Z","depth":"0","parameterNumber":3,"parameterNumberName":"V-component_of_CURRENTS"},"data":[0,0,0,-0.0083,-0.0082,-0.0039,-0.0039,0.0027,0.0027,0,0,0,0,0,0,0,0,0,0,0,-0.0099,-0.0099,-0.0083,-0.0082,-0.0039,-0.0039,0.0026,0.0027,0,0,0,0,0,0,0,0,0,0,0,-0.0099,-0.0099,-0.0099,-0.0082,-0.0039,-0.0039,0.0026,-0.0007,0,0,0,0,0,0,0,0,0,0,-0.005,-0.007,-0.0099,-0.0099,-0.0082,-0.0039,-0.0038,-0.0009,-0.0005,0.0008,0,0.001,0,0.0019,0.0031,0.0031,0,0,0,-0.0076,-0.0073,-0.0061,-0.0099,-0.0081,-0.0039,-0.0057,-0.0007,-0.0003,0.0013,0.0011,0.0014,0.002,0.0031,0.0032,0.0099,0.0099,0,0,-0.0079,-0.0089,-0.0064,-0.0058,-0.0075,-0.0058,-0.0055,-0.0004,-0.0002,0.0011,0.0015,0.0021,0.0032,0.0032,0.0099,0.0099,0,0,0,-0.0089,-0.0091,-0.008,-0.0061,-0.0055,-0.0057,-0.0054,-0.0004,-0.0001,0.0016,0.0022,0.0032,0.0033,0.0099,0.0099,0.0076,0,0,0,-0.0091,-0.0098,-0.0082,-0.0087,-0.0056,-0.0031,-0.0055,-0.0005,0.0002,0.0021,0.0032,0.0034,0.0098,0.0099,0.0076,0.0058,0,0,0,-0.01,-0.0098,-0.0095,-0.0088,-0.0071,-0.0031,-0.0025,-0.0003,0.0005,0.0031,0.0034,0.0098,0.0099,0.0076,0.0058,0.0091,0,0,0,-0.011,-0.0137,-0.0096,-0.0124,-0.0072,-0.0071,-0.0025,-0.0023,-0.0008,0.0033,0.0098,0.0099,0.0076,0.0059,0.009,0.0078,0.0078,0,0,-0.0157,-0.0142,-0.0162,-0.0125,-0.0145,-0.0076,-0.0061,-0.0023,0.0015,0.0082,0.0084,0.0076,0.0058,0.0091,0.0117,0.0116,0,0,0,-0.0187,-0.0198,-0.0199,-0.0195,-0.0171,-0.0113,-0.0067,-0.0019,0.0049,0.0029,0.0096,0.0086,0.0107,0.01,0.01,0.0283,0.0102,0.0102,0.0102,-0.0255,-0.0245,-0.027,-0.0245,-0.0223,-0.0138,-0.008,0.0006,0.003,0.0068,0.0083,0.011,0.0102,0.0102,0.0291,0.0105,0.0105,0.0105,0.0105,-0.0329,-0.0344,-0.0305,-0.0328,-0.0248,-0.021,-0.0071,-0.002,0.0084,0.0094,0.0116,0.0094,0.01,0.0302,0.0104,0.0104,0.0104,0.0104,0.0104,-0.0375,-0.038,-0.0385,-0.0385,-0.0333,-0.024,-0.016,-0.0047,0.0054,0.0086,0.0105,0.0105,0.0271,0.0102,0.0102,0.0102,0.0102,0.0102,0.0102,-0.0419,-0.0422,-0.0454,-0.0439,-0.0428,-0.0365,-0.021,-0.0133,0.0005,0.0082,0.0082,0.031,0.011,0.0097,0.0103,0.0103,0.0103,0.0103,0.0103,-0.0482,-0.048,-0.0533,-0.0543,-0.0523,-0.0513,-0.0365,-0.0208,-0.0082,-0.0023,0.0324,0.01,0.0112,0.0112,0.01,0.0107,0.0107,0.0107,0.0107,-0.0518,-0.0523,-0.0602,-0.0635,-0.0634,-0.058,-0.0552,-0.0339,0.0084,0.0328,0.0432,0.0452,0.0444,0.0478,0.047,0.0467,0.0567,0.0568,0.0569,-0.0554,-0.0576,-0.0643,-0.0686,-0.0692,-0.0675,-0.0685,-0.045,0.0252,0.061,0.0697,0.0677,0.0729,0.0701,0.0767,0.0741,0.074,0,0]}],[{"header":{"parameterUnit":"m.s-1","parameterCategory":2,"la1":30.2992,"la2":30.254,"lo1":-89.0895,"lo2":-89.0443,"dy":0.0025,"dx":0.0025,"nx":19,"ny":19,"refTime":"2026-04-02T21:00:00:Z","depth":"2","parameterNumber":2,"parameterNumberName":"U-component_of_CURRENTS"},"data":[0,0,0,-0.142,-0.1423,-0.1544,-0.1544,-0.1565,-0.1565,0,0,0,0,0,0,0,0,0,0,0,-0.136,-0.1361,-0.142,-0.1423,-0.1544,-0.1544,-0.1565,-0.1565,0,0,0,0,0,0,0,0,0,0,0,-0.136,-0.1361,-0.1361,-0.1424,-0.1544,-0.1544,-0.1565,-0.1505,0,0,0,0,0,0,0,0,0,0,-0.1404,-0.1369,-0.1361,-0.1361,-0.1425,-0.1544,-0.1544,-0.1504,-0.1509,-0.1474,0,-0.1491,0,-0.1537,-0.1564,-0.1564,0,0,0,-0.1416,-0.1365,-0.1403,-0.1362,-0.1426,-0.1543,-0.1487,-0.1508,-0.1513,-0.1481,-0.1492,-0.1494,-0.1537,-0.1564,-0.1564,-0.1495,-0.1494,0,0,-0.1409,-0.1375,-0.14,-0.1407,-0.1451,-0.1483,-0.1491,-0.1512,-0.1508,-0.1492,-0.1496,-0.1537,-0.1564,-0.1564,-0.1495,-0.1494,0,0,0,-0.1395,-0.137,-0.1411,-0.1404,-0.1442,-0.1487,-0.1496,-0.1508,-0.1523,-0.1497,-0.1538,-0.1564,-0.1563,-0.1496,-0.1495,-0.1499,0,0,0,-0.1391,-0.1363,-0.1407,-0.1388,-0.1442,-0.1496,-0.149,-0.1521,-0.1526,-0.1538,-0.1564,-0.1563,-0.1497,-0.1495,-0.15,-0.1515,0,0,0,-0.1356,-0.136,-0.1374,-0.1386,-0.1445,-0.1497,-0.1514,-0.1524,-0.1551,-0.1564,-0.1563,-0.1497,-0.1496,-0.1502,-0.1517,-0.1567,0,0,0,-0.1317,-0.1345,-0.1373,-0.1414,-0.1444,-0.1503,-0.1515,-0.1556,-0.1569,-0.1563,-0.1497,-0.1495,-0.1502,-0.1518,-0.1567,-0.1636,-0.1642,0,0,-0.1335,-0.1346,-0.1373,-0.1402,-0.1457,-0.1487,-0.1506,-0.1531,-0.1525,-0.1481,-0.148,-0.15,-0.1517,-0.1567,-0.1546,-0.1556,0,0,0,-0.1368,-0.1377,-0.1401,-0.1439,-0.1487,-0.1499,-0.1527,-0.1514,-0.1492,-0.1528,-0.1467,-0.1477,-0.151,-0.1549,-0.1556,-0.1488,-0.1488,-0.1488,-0.1488,-0.1326,-0.137,-0.1398,-0.1441,-0.1466,-0.1498,-0.15,-0.1473,-0.1472,-0.1446,-0.1456,-0.1461,-0.1499,-0.1506,-0.1419,-0.1419,-0.1419,-0.1419,-0.1419,-0.1326,-0.1338,-0.1374,-0.1414,-0.1432,-0.1437,-0.1442,-0.1444,-0.144,-0.1414,-0.1447,-0.1518,-0.1514,-0.1419,-0.1419,-0.1419,-0.1419,-0.1419,-0.1419,-0.1279,-0.129,-0.1318,-0.1356,-0.1373,-0.1402,-0.1439,-0.1441,-0.1445,-0.1467,-0.155,-0.1551,-0.1512,-0.15,-0.15,-0.15,-0.15,-0.1501,-0.1501,-0.1215,-0.1246,-0.1257,-0.1301,-0.1323,-0.1369,-0.1443,-0.1494,-0.1562,-0.1566,-0.1567,-0.149,-0.1487,-0.1516,-0.1505,-0.1504,-0.1504,-0.1503,-0.1503,-0.116,-0.1172,-0.119,-0.1214,-0.129,-0.1334,-0.1447,-0.1605,-0.1672,-0.1721,-0.1633,-0.1629,-0.1649,-0.1643,-0.1676,-0.1707,-0.1707,-0.1707,-0.1707,-0.1103,-0.1119,-0.1133,-0.1174,-0.1245,-0.132,-0.1441,-0.1561,-0.1668,-0.1659,-0.166,-0.1627,-0.1621,-0.1637,-0.1631,-0.1662,-0.1689,-0.1689,-0.1688,-0.1053,-0.1072,-0.1065,-0.1132,-0.1224,-0.1303,-0.1366,-0.1427,-0.1534,-0.1678,-0.1562,-0.1724,-0.1679,-0.1669,-0.1695,-0.1685,-0.1735,0,0]},{"header":{"parameterUnit":"m.s-1","parameterCategory":2,"la1":30.2992,"la2":30.254,"lo1":-89.0895,"lo2":-89.0443,"dy":0.0025,"dx":0.0025,"nx":19,"ny":19,"refTime":"2026-04-02T21:00:00:Z","depth":"2","parameterNumber":3,"parameterNumberName":"V-component_of_CURRENTS"},"data":[0,0,0,-0.0144,-0.0144,-0.0097,-0.0096,-0.0019,-0.0018,0,0,0,0,0,0,0,0,0,0,0,-0.0161,-0.0161,-0.0145,-0.0144,-0.0097,-0.0096,-0.0019,-0.0018,0,0,0,0,0,0,0,0,0,0,0,-0.0161,-0.0161,-0.0161,-0.0143,-0.0097,-0.0096,-0.0019,-0.0057,0,0,0,0,0,0,0,0,0,0,-0.0104,-0.0126,-0.0161,-0.0161,-0.0143,-0.0097,-0.0096,-0.0059,-0.0055,-0.0037,0,-0.0035,0,-0.0027,-0.0013,-0.0013,0,0,0,-0.0137,-0.013,-0.0117,-0.0161,-0.0143,-0.0097,-0.0116,-0.0057,-0.0052,-0.0031,-0.0034,-0.0031,-0.0025,-0.0013,-0.0012,0.0063,0.0063,0,0,-0.0139,-0.015,-0.0121,-0.0114,-0.0136,-0.0117,-0.0115,-0.0054,-0.0051,-0.0033,-0.0029,-0.0024,-0.0012,-0.0012,0.0063,0.0063,0,0,0,-0.0151,-0.0152,-0.0141,-0.0117,-0.0111,-0.0116,-0.0113,-0.0053,-0.005,-0.0028,-0.0023,-0.0012,-0.0011,0.0062,0.0063,0.0039,0,0,0,-0.0153,-0.016,-0.0142,-0.0148,-0.0113,-0.0085,-0.0114,-0.0054,-0.0047,-0.0023,-0.0012,-0.001,0.0062,0.0062,0.0039,0.0019,0,0,0,-0.0163,-0.016,-0.0157,-0.0149,-0.0131,-0.0085,-0.0078,-0.0052,-0.0044,-0.0013,-0.001,0.0062,0.0062,0.0039,0.002,0.0041,0,0,0,-0.0172,-0.0198,-0.0157,-0.0184,-0.0132,-0.0125,-0.0078,-0.007,-0.0051,-0.0011,0.0062,0.0063,0.0039,0.0021,0.0041,0.0015,0.0013,0,0,-0.0219,-0.0204,-0.0221,-0.0185,-0.02,-0.0131,-0.0111,-0.0067,-0.0028,0.0044,0.0046,0.0039,0.002,0.0041,0.0051,0.0048,0,0,0,-0.0246,-0.0256,-0.0256,-0.0249,-0.0222,-0.0162,-0.0111,-0.0062,0.0008,-0.0013,0.0059,0.0048,0.0062,0.0046,0.0044,0.0066,0.0066,0.0065,0.0065,-0.0314,-0.0301,-0.0323,-0.0295,-0.0269,-0.0181,-0.0123,-0.0036,-0.0008,0.0028,0.0043,0.0061,0.0045,0.0043,0.0066,0.0066,0.0066,0.0066,0.0066,-0.0387,-0.04,-0.0358,-0.0376,-0.0294,-0.0253,-0.0113,-0.0062,0.0038,0.0053,0.0068,0.004,0.0039,0.0064,0.0065,0.0065,0.0065,0.0065,0.0065,-0.0433,-0.0437,-0.044,-0.0436,-0.0381,-0.0285,-0.0208,-0.0095,0.0005,0.0033,0.0036,0.0036,0.0042,0.0043,0.0043,0.0043,0.0043,0.0043,0.0043,-0.0479,-0.048,-0.051,-0.0492,-0.0479,-0.0415,-0.0262,-0.0192,-0.0066,0.0009,0.0009,0.0054,0.0055,0.0042,0.0043,0.0043,0.0043,0.0043,0.0043,-0.0542,-0.0541,-0.0591,-0.0601,-0.0577,-0.0566,-0.0423,-0.0282,-0.0168,-0.0119,0.0012,0.0013,0.0021,0.0023,0.0011,0.0004,0.0004,0.0004,0.0004,-0.058,-0.0585,-0.0661,-0.0694,-0.0691,-0.0634,-0.0612,-0.0428,-0.0195,-0.006,-0.0057,-0.0068,-0.0065,-0.0062,-0.0058,-0.0072,-0.0101,-0.0101,-0.0101,-0.0617,-0.0639,-0.0705,-0.0745,-0.0749,-0.0731,-0.074,-0.0541,-0.0193,-0.0106,-0.0079,-0.0003,-0.0012,-0.001,0.0002,0.0006,-0.0014,0,0]}],[{"header":{"parameterUnit":"m.s-1","parameterCategory":2,"la1":30.2992,"la2":30.254,"lo1":-89.0895,"lo2":-89.0443,"dy":0.0025,"dx":0.0025,"nx":19,"ny":19,"refTime":"2026-04-02T21:00:00:Z","depth":"4","parameterNumber":2,"parameterNumberName":"U-component_of_CURRENTS"},"data":[0,0,0,-0.0618,-0.0618,-0.0621,-0.0621,-0.07,-0.0701,0,0,0,0,0,0,0,0,0,0,0,-0.0632,-0.0632,-0.0618,-0.0618,-0.0621,-0.0621,-0.07,-0.0701,0,0,0,0,0,0,0,0,0,0,0,-0.0632,-0.0632,-0.0632,-0.0618,-0.0621,-0.0621,-0.07,-0.0681,0,0,0,0,0,0,0,0,0,0,-0.067,-0.0659,-0.0632,-0.0632,-0.0617,-0.0621,-0.0621,-0.068,-0.0683,-0.0716,0,-0.0719,0,-0.0702,-0.0707,-0.0707,0,0,0,-0.0629,-0.0657,-0.0662,-0.0633,-0.0617,-0.0621,-0.0623,-0.0681,-0.0684,-0.072,-0.072,-0.0722,-0.0703,-0.0707,-0.0708,-0.0849,-0.085,0,0,-0.0629,-0.063,-0.066,-0.0664,-0.0623,-0.0622,-0.0623,-0.0682,-0.0687,-0.072,-0.0723,-0.0705,-0.0708,-0.0709,-0.0848,-0.0849,0,0,0,-0.0621,-0.063,-0.0633,-0.0662,-0.0651,-0.0622,-0.0622,-0.0684,-0.0687,-0.0724,-0.0706,-0.0708,-0.0709,-0.0847,-0.0849,-0.0964,0,0,0,-0.0621,-0.0624,-0.0633,-0.0633,-0.065,-0.0654,-0.0623,-0.0683,-0.0688,-0.0705,-0.0708,-0.071,-0.0846,-0.0848,-0.0959,-0.0936,0,0,0,-0.0631,-0.0624,-0.0627,-0.0633,-0.0627,-0.0652,-0.0658,-0.0683,-0.0677,-0.0707,-0.0711,-0.0846,-0.0848,-0.0954,-0.093,-0.0942,0,0,0,-0.0629,-0.0633,-0.0628,-0.0636,-0.0627,-0.0678,-0.0657,-0.0721,-0.0758,-0.0709,-0.0847,-0.0849,-0.0953,-0.0927,-0.0939,-0.084,0,0,0,-0.0632,-0.0633,-0.0641,-0.0636,-0.0664,-0.0677,-0.0749,-0.0799,-0.0797,-0.0832,-0.0835,-0.0961,-0.093,-0.0942,-0.0966,0,0,0,0,-0.0641,-0.0652,-0.0658,-0.0676,-0.0706,-0.0775,-0.0812,-0.0846,-0.0926,-0.0822,-0.0971,-0.0946,-0.0951,-0.0886,-0.0859,-0.0859,-0.0858,-0.0858,-0.0858,-0.0647,-0.0667,-0.0692,-0.073,-0.0778,-0.0868,-0.092,-0.0979,-0.0991,-0.1059,-0.1053,-0.1145,-0.1088,-0.1102,-0.1103,-0.1103,-0.1104,-0.1104,-0.1105,-0.0661,-0.0673,-0.0733,-0.0776,-0.0863,-0.0958,-0.1054,-0.1098,-0.1147,-0.1154,-0.1156,-0.1027,-0.1116,-0.1114,-0.1112,-0.1111,-0.111,-0.1109,-0.1109,-0.0652,-0.0661,-0.0709,-0.0794,-0.092,-0.1032,-0.1118,-0.1186,-0.1217,-0.1237,-0.116,-0.1186,-0.1159,-0.1275,-0.1275,-0.1275,-0.1276,-0.1276,-0.1276,-0.0613,-0.0654,-0.0703,-0.0813,-0.089,-0.1015,-0.1163,-0.1195,-0.1261,-0.1217,-0.127,-0.12,-0.1194,-0.1166,-0.1276,-0.1276,-0.1276,-0.1276,-0.1276,-0.0574,-0.0602,-0.0662,-0.073,-0.0879,-0.0951,-0.1099,-0.119,-0.1209,-0.1206,-0.1193,-0.1197,-0.1118,-0.1114,-0.1079,-0.1167,-0.1166,-0.1165,0,-0.0537,-0.0558,-0.0617,-0.0686,-0.0779,-0.0903,-0.0969,-0.1061,-0.1109,-0.1055,-0.1177,-0.1156,-0.116,-0.1065,-0.1059,-0.1016,0,0,0,-0.0507,-0.0537,-0.0557,-0.0634,-0.0732,-0.0847,-0.0981,-0.0998,-0.1082,-0.1152,-0.1142,-0.1148,-0.1285,-0.1277,-0.1162,-0.1156,-0.1103,0,0]},{"header":{"parameterUnit":"m.s-1","parameterCategory":2,"la1":30.2992,"la2":30.254,"lo1":-89.0895,"lo2":-89.0443,"dy":0.0025,"dx":0.0025,"nx":19,"ny":19,"refTime":"2026-04-02T21:00:00:Z","depth":"4","parameterNumber":3,"parameterNumberName":"V-component_of_CURRENTS"},"data":[0,0,0,-0.0064,-0.0063,0.0028,0.0028,0.0249,0.0251,0,0,0,0,0,0,0,0,0,0,0,-0.0093,-0.0093,-0.0064,-0.0063,0.0027,0.0028,0.0248,0.0251,0,0,0,0,0,0,0,0,0,0,0,-0.0093,-0.0093,-0.0093,-0.0062,0.0027,0.0028,0.0248,0.0159,0,0,0,0,0,0,0,0,0,0,0.006,0.0007,-0.0093,-0.0093,-0.0062,0.0027,0.0028,0.0153,0.0164,0.0231,0,0.0231,0,0.0239,0.0266,0.0267,0,0,0,-0.0042,-0.0002,0.0022,-0.0093,-0.0062,0.0027,-0.0007,0.0159,0.0171,0.0246,0.0234,0.0241,0.0243,0.0267,0.0268,0.0397,0.0397,0,0,-0.0047,-0.0067,0.0012,0.0029,-0.0053,-0.001,-0.0005,0.0165,0.0175,0.0235,0.0246,0.0246,0.0269,0.0271,0.0397,0.0397,0,0,0,-0.0075,-0.0071,-0.0053,0.002,0.0024,-0.0008,-0.0002,0.0168,0.0172,0.0248,0.0249,0.027,0.0273,0.0398,0.0397,0.0298,0,0,0,-0.0077,-0.0089,-0.0056,-0.0065,0.002,0.0082,-0.0003,0.0161,0.018,0.0248,0.027,0.0275,0.0398,0.0398,0.0301,0.0275,0,0,0,-0.0095,-0.009,-0.0086,-0.0067,-0.0038,0.0078,0.0094,0.0165,0.018,0.0267,0.0276,0.0398,0.0398,0.0304,0.028,0.0267,0,0,0,-0.0109,-0.0105,-0.0086,-0.007,-0.0039,0.0042,0.0093,0.0179,0.0253,0.0271,0.0398,0.0397,0.0305,0.0284,0.027,0.0211,0,0,0,-0.0112,-0.0106,-0.0093,-0.0075,-0.0029,0.0032,0.0092,0.0209,0.026,0.0355,0.0357,0.03,0.0281,0.0268,0.0171,0,0,0,0,-0.0098,-0.0097,-0.0074,-0.0047,0.0019,0.0051,0.0169,0.0199,0.0251,0.0293,0.0314,0.0306,0.03,0.0275,0.0394,0.0394,0.0394,0.0394,0.0394,-0.0147,-0.011,-0.009,-0.0041,0.0004,0.0092,0.0121,0.0177,0.0254,0.0239,0.0233,0.0171,0.0138,0.0237,0.0236,0.0236,0.0235,0.0235,0.0235,-0.0169,-0.0162,-0.0125,-0.01,-0.0057,-0.0009,0.0062,0.0092,0.0132,0.0169,0.0168,0.0182,0.0225,0.0227,0.0229,0.023,0.0231,0.0231,0.0232,-0.0209,-0.0202,-0.019,-0.0173,-0.0169,-0.0109,-0.0113,-0.0044,0.0031,0.0032,0.0038,0.0123,0.0123,0.0033,0.0033,0.0033,0.0032,0.0032,0.0032,-0.0261,-0.0242,-0.0261,-0.0252,-0.0273,-0.028,-0.0214,-0.0178,-0.0088,-0.006,0.0014,0.0104,0.0111,0.0114,0.0029,0.003,0.003,0.003,0.0031,-0.0296,-0.0301,-0.0332,-0.0359,-0.0403,-0.0407,-0.0354,-0.0272,-0.0232,-0.0192,-0.0097,-0.009,-0.0047,-0.0036,-0.0036,-0.0169,-0.017,-0.0171,0,-0.0336,-0.0333,-0.0396,-0.0457,-0.0507,-0.0484,-0.046,-0.0394,-0.0275,-0.0278,-0.0221,-0.0117,-0.011,-0.0062,-0.0054,-0.0057,0,0,0,-0.0365,-0.038,-0.0442,-0.0493,-0.056,-0.0506,-0.045,-0.0424,-0.0299,-0.0278,-0.0198,-0.0191,-0.009,0.002,0.0104,0.0112,0.0123,0,0]}]]